Year,Month,Day,Hour,Minute,Value (Times are PST for temperature in C)
2008,08,15,00,00,18.70
2008,08,15,00,01,18.70
2008,08,15,00,02,18.60
2008,08,15,00,03,18.60
2008,08,15,00,04,18.60
2008,08,15,00,05,18.60
2008,08,15,00,06,18.60
2008,08,15,00,07,18.60
2008,08,15,00,08,18.60
2008,08,15,00,09,18.60
2008,08,15,00,10,18.50
2008,08,15,00,11,18.50
2008,08,15,00,12,18.50
2008,08,15,00,13,18.50
2008,08,15,00,14,18.50
2008,08,15,00,15,18.50
2008,08,15,00,16,18.50
2008,08,15,00,17,18.40
2008,08,15,00,18,18.40
2008,08,15,00,19,18.40
2008,08,15,00,20,18.40
2008,08,15,00,21,18.40
2008,08,15,00,22,18.40
2008,08,15,00,23,18.40
2008,08,15,00,24,18.40
2008,08,15,00,25,18.40
2008,08,15,00,26,18.40
2008,08,15,00,27,18.40
2008,08,15,00,28,18.40
2008,08,15,00,29,18.30
2008,08,15,00,30,18.30
2008,08,15,00,31,18.30
2008,08,15,00,32,18.30
2008,08,15,00,33,18.30
2008,08,15,00,34,18.30
2008,08,15,00,35,18.20
2008,08,15,00,36,18.20
2008,08,15,00,37,18.20
2008,08,15,00,38,18.20
2008,08,15,00,39,18.20
2008,08,15,00,40,18.20
2008,08,15,00,41,18.20
2008,08,15,00,42,18.10
2008,08,15,00,43,18.10
2008,08,15,00,44,18.10
2008,08,15,00,45,17.90
2008,08,15,00,46,17.90
2008,08,15,00,47,17.90
2008,08,15,00,48,17.90
2008,08,15,00,49,17.90
2008,08,15,00,50,17.90
2008,08,15,00,51,17.90
2008,08,15,00,52,17.80
2008,08,15,00,53,17.80
2008,08,15,00,54,17.80
2008,08,15,00,55,17.80
2008,08,15,00,56,17.80
2008,08,15,00,57,17.70
2008,08,15,00,58,17.70
2008,08,15,00,59,17.70
2008,08,15,01,00,17.70
2008,08,15,01,01,17.70
2008,08,15,01,02,17.70
2008,08,15,01,03,17.70
2008,08,15,01,04,17.70
2008,08,15,01,05,17.70
2008,08,15,01,06,17.70
2008,08,15,01,07,17.70
2008,08,15,01,08,17.80
2008,08,15,01,09,17.80
2008,08,15,01,10,17.80
2008,08,15,01,11,17.80
2008,08,15,01,12,17.80
2008,08,15,01,13,17.80
2008,08,15,01,14,17.80
2008,08,15,01,15,17.80
2008,08,15,01,16,17.80
2008,08,15,01,17,17.80
2008,08,15,01,18,17.80
2008,08,15,01,19,17.80
2008,08,15,01,20,17.80
2008,08,15,01,21,17.80
2008,08,15,01,22,17.80
2008,08,15,01,23,17.80
2008,08,15,01,24,17.80
2008,08,15,01,25,17.80
2008,08,15,01,26,17.70
2008,08,15,01,27,17.70
2008,08,15,01,28,17.70
2008,08,15,01,29,17.70
2008,08,15,01,30,17.70
2008,08,15,01,31,17.70
2008,08,15,01,32,17.60
2008,08,15,01,33,17.60
2008,08,15,01,34,17.60
2008,08,15,01,35,17.60
2008,08,15,01,36,17.60
2008,08,15,01,37,17.60
2008,08,15,01,38,17.60
2008,08,15,01,39,17.60
2008,08,15,01,40,17.60
2008,08,15,01,41,17.50
2008,08,15,01,42,17.50
2008,08,15,01,43,17.50
2008,08,15,01,44,17.50
2008,08,15,01,45,17.50
2008,08,15,01,46,17.40
2008,08,15,01,47,17.40
2008,08,15,01,48,17.40
2008,08,15,01,49,17.40
2008,08,15,01,50,17.40
2008,08,15,01,51,17.40
2008,08,15,01,52,17.40
2008,08,15,01,53,17.30
2008,08,15,01,54,17.30
2008,08,15,01,55,17.30
2008,08,15,01,56,17.30
2008,08,15,01,57,17.30
2008,08,15,01,58,17.30
2008,08,15,01,59,17.30
2008,08,15,02,00,17.30
2008,08,15,02,01,17.20
2008,08,15,02,02,17.20
2008,08,15,02,03,17.20
2008,08,15,02,04,17.20
2008,08,15,02,05,17.20
2008,08,15,02,06,17.10
2008,08,15,02,07,17.10
2008,08,15,02,08,17.10
2008,08,15,02,09,17.10
2008,08,15,02,10,17.10
2008,08,15,02,11,17.20
2008,08,15,02,12,17.20
2008,08,15,02,13,17.20
2008,08,15,02,14,17.20
2008,08,15,02,15,17.20
2008,08,15,02,16,17.20
2008,08,15,02,17,17.20
2008,08,15,02,18,17.20
2008,08,15,02,19,17.20
2008,08,15,02,20,17.20
2008,08,15,02,21,17.10
2008,08,15,02,22,17.10
2008,08,15,02,23,17.10
2008,08,15,02,24,17.10
2008,08,15,02,25,17.10
2008,08,15,02,26,17.10
2008,08,15,02,27,17.10
2008,08,15,02,28,17.10
2008,08,15,02,29,17.10
2008,08,15,02,30,17.00
2008,08,15,02,31,17.00
2008,08,15,02,32,17.00
2008,08,15,02,33,17.00
2008,08,15,02,34,17.00
2008,08,15,02,35,17.00
2008,08,15,02,36,17.00
2008,08,15,02,37,17.00
2008,08,15,02,38,17.00
2008,08,15,02,39,17.00
2008,08,15,02,40,17.00
2008,08,15,02,41,17.00
2008,08,15,02,42,17.00
2008,08,15,02,43,17.00
2008,08,15,02,44,17.00
2008,08,15,02,45,17.00
2008,08,15,02,46,17.00
2008,08,15,02,47,16.90
2008,08,15,02,48,16.90
2008,08,15,02,49,16.90
2008,08,15,02,50,16.90
2008,08,15,02,51,16.90
2008,08,15,02,52,16.80
2008,08,15,02,53,16.80
2008,08,15,02,54,16.80
2008,08,15,02,55,16.80
2008,08,15,02,56,16.80
2008,08,15,02,57,16.70
2008,08,15,02,58,16.70
2008,08,15,02,59,16.70
2008,08,15,03,00,16.70
2008,08,15,03,01,16.70
2008,08,15,03,02,16.70
2008,08,15,03,03,16.70
2008,08,15,03,04,16.70
2008,08,15,03,05,16.70
2008,08,15,03,06,16.70
2008,08,15,03,07,16.70
2008,08,15,03,08,16.70
2008,08,15,03,09,16.70
2008,08,15,03,10,16.70
2008,08,15,03,11,16.70
2008,08,15,03,12,16.70
2008,08,15,03,13,16.70
2008,08,15,03,14,16.70
2008,08,15,03,15,16.70
2008,08,15,03,16,16.70
2008,08,15,03,17,16.70
2008,08,15,03,18,16.70
2008,08,15,03,19,16.70
2008,08,15,03,20,16.70
2008,08,15,03,21,16.70
2008,08,15,03,22,16.70
2008,08,15,03,23,16.70
2008,08,15,03,24,16.70
2008,08,15,03,25,16.70
2008,08,15,03,26,16.70
2008,08,15,03,27,16.70
2008,08,15,03,28,16.70
2008,08,15,03,29,16.70
2008,08,15,03,30,16.70
2008,08,15,03,31,16.70
2008,08,15,03,32,16.70
2008,08,15,03,33,16.70
2008,08,15,03,34,16.70
2008,08,15,03,35,16.70
2008,08,15,03,36,16.70
2008,08,15,03,37,16.70
2008,08,15,03,38,16.60
2008,08,15,03,39,16.60
2008,08,15,03,40,16.60
2008,08,15,03,41,16.60
2008,08,15,03,42,16.60
2008,08,15,03,43,16.60
2008,08,15,03,44,16.60
2008,08,15,03,45,16.60
2008,08,15,03,46,16.60
2008,08,15,03,47,16.60
2008,08,15,03,48,16.60
2008,08,15,03,49,16.50
2008,08,15,03,50,16.40
2008,08,15,03,51,16.40
2008,08,15,03,52,16.40
2008,08,15,03,53,16.40
2008,08,15,03,54,16.40
2008,08,15,03,55,16.40
2008,08,15,03,56,16.40
2008,08,15,03,57,16.40
2008,08,15,03,58,16.40
2008,08,15,03,59,16.40
2008,08,15,04,00,16.40
2008,08,15,04,01,16.40
2008,08,15,04,02,16.40
2008,08,15,04,03,16.40
2008,08,15,04,04,16.40
2008,08,15,04,05,16.40
2008,08,15,04,06,16.40
2008,08,15,04,07,16.40
2008,08,15,04,08,16.30
2008,08,15,04,09,16.30
2008,08,15,04,10,16.30
2008,08,15,04,11,16.30
2008,08,15,04,12,16.30
2008,08,15,04,13,16.30
2008,08,15,04,14,16.30
2008,08,15,04,15,16.20
2008,08,15,04,16,16.20
2008,08,15,04,17,16.20
2008,08,15,04,18,16.20
2008,08,15,04,19,16.20
2008,08,15,04,20,16.10
2008,08,15,04,21,16.10
2008,08,15,04,22,16.10
2008,08,15,04,23,16.10
2008,08,15,04,24,16.10
2008,08,15,04,25,16.10
2008,08,15,04,26,16.10
2008,08,15,04,27,16.10
2008,08,15,04,28,16.10
2008,08,15,04,29,16.10
2008,08,15,04,30,16.10
2008,08,15,04,31,16.10
2008,08,15,04,32,16.10
2008,08,15,04,33,16.10
2008,08,15,04,34,16.10
2008,08,15,04,35,16.10
2008,08,15,04,36,16.10
2008,08,15,04,37,16.10
2008,08,15,04,38,16.10
2008,08,15,04,39,16.10
2008,08,15,04,40,16.10
2008,08,15,04,41,16.10
2008,08,15,04,42,16.10
2008,08,15,04,43,15.90
2008,08,15,04,44,15.90
2008,08,15,04,45,15.90
2008,08,15,04,46,15.90
2008,08,15,04,47,15.90
2008,08,15,04,48,15.90
2008,08,15,04,49,15.90
2008,08,15,04,50,15.90
2008,08,15,04,51,15.90
2008,08,15,04,52,15.80
2008,08,15,04,53,15.80
2008,08,15,04,54,15.80
2008,08,15,04,55,15.80
2008,08,15,04,56,15.80
2008,08,15,04,57,15.80
2008,08,15,04,58,15.80
2008,08,15,04,59,15.80
2008,08,15,05,00,15.80
2008,08,15,05,01,15.80
2008,08,15,05,02,15.80
2008,08,15,05,03,15.80
2008,08,15,05,04,15.80
2008,08,15,05,05,15.80
2008,08,15,05,06,15.80
2008,08,15,05,07,15.80
2008,08,15,05,08,15.80
2008,08,15,05,09,15.80
2008,08,15,05,10,15.80
2008,08,15,05,11,15.80
2008,08,15,05,12,15.80
2008,08,15,05,13,15.80
2008,08,15,05,14,15.80
2008,08,15,05,15,15.80
2008,08,15,05,16,15.70
2008,08,15,05,17,15.70
2008,08,15,05,18,15.70
2008,08,15,05,19,15.70
2008,08,15,05,20,15.60
2008,08,15,05,21,15.60
2008,08,15,05,22,15.60
2008,08,15,05,23,15.60
2008,08,15,05,24,15.60
2008,08,15,05,25,15.60
2008,08,15,05,26,15.50
2008,08,15,05,27,15.50
2008,08,15,05,28,15.50
2008,08,15,05,29,15.60
2008,08,15,05,30,15.60
2008,08,15,05,31,15.60
2008,08,15,05,32,15.60
2008,08,15,05,33,15.60
2008,08,15,05,34,15.60
2008,08,15,05,35,15.60
2008,08,15,05,36,15.60
2008,08,15,05,37,15.60
2008,08,15,05,38,15.60
2008,08,15,05,39,15.50
2008,08,15,05,40,15.50
2008,08,15,05,41,15.50
2008,08,15,05,42,15.50
2008,08,15,05,43,15.50
2008,08,15,05,44,15.60
2008,08,15,05,45,15.60
2008,08,15,05,46,15.60
2008,08,15,05,47,15.60
2008,08,15,05,48,15.60
2008,08,15,05,49,15.60
2008,08,15,05,50,15.50
2008,08,15,05,51,15.50
2008,08,15,05,52,15.50
2008,08,15,05,53,15.50
2008,08,15,05,54,15.50
2008,08,15,05,55,15.50
2008,08,15,05,56,15.50
2008,08,15,05,57,15.50
2008,08,15,05,58,15.50
2008,08,15,05,59,15.50
2008,08,15,06,00,15.50
2008,08,15,06,01,15.50
2008,08,15,06,02,15.50
2008,08,15,06,03,15.50
2008,08,15,06,04,15.40
2008,08,15,06,05,15.40
2008,08,15,06,06,15.40
2008,08,15,06,07,15.40
2008,08,15,06,08,15.40
2008,08,15,06,09,15.40
2008,08,15,06,10,15.40
2008,08,15,06,11,15.40
2008,08,15,06,12,15.40
2008,08,15,06,13,15.40
2008,08,15,06,14,15.40
2008,08,15,06,15,15.40
2008,08,15,06,16,15.50
2008,08,15,06,17,15.50
2008,08,15,06,18,15.50
2008,08,15,06,19,15.40
2008,08,15,06,20,15.40
2008,08,15,06,21,15.40
2008,08,15,06,22,15.40
2008,08,15,06,23,15.40
2008,08,15,06,24,15.40
2008,08,15,06,25,15.40
2008,08,15,06,26,15.40
2008,08,15,06,27,15.40
2008,08,15,06,28,15.40
2008,08,15,06,29,15.40
2008,08,15,06,30,15.40
2008,08,15,06,31,15.40
2008,08,15,06,32,15.40
2008,08,15,06,33,15.40
2008,08,15,06,34,15.50
2008,08,15,06,35,15.50
2008,08,15,06,36,15.50
2008,08,15,06,37,15.50
2008,08,15,06,38,15.50
2008,08,15,06,39,15.50
2008,08,15,06,40,15.50
2008,08,15,06,41,15.50
2008,08,15,06,42,15.60
2008,08,15,06,43,15.60
2008,08,15,06,44,15.60
2008,08,15,06,45,15.60
2008,08,15,06,46,15.60
2008,08,15,06,47,15.60
2008,08,15,06,48,15.60
2008,08,15,06,49,15.60
2008,08,15,06,50,15.60
2008,08,15,06,51,15.70
2008,08,15,06,52,15.70
2008,08,15,06,53,15.70
2008,08,15,06,54,15.80
2008,08,15,06,55,15.80
2008,08,15,06,56,15.80
2008,08,15,06,57,15.80
2008,08,15,06,58,15.80
2008,08,15,06,59,15.80
2008,08,15,07,00,15.80
2008,08,15,07,01,15.80
2008,08,15,07,02,15.80
2008,08,15,07,03,15.90
2008,08,15,07,04,15.90
2008,08,15,07,05,15.90
2008,08,15,07,06,15.90
2008,08,15,07,07,15.90
2008,08,15,07,08,15.90
2008,08,15,07,09,15.90
2008,08,15,07,10,16.00
2008,08,15,07,11,16.10
2008,08,15,07,12,16.10
2008,08,15,07,13,16.10
2008,08,15,07,14,16.10
2008,08,15,07,15,16.10
2008,08,15,07,16,16.10
2008,08,15,07,17,16.10
2008,08,15,07,18,16.10
2008,08,15,07,19,16.20
2008,08,15,07,20,16.20
2008,08,15,07,21,16.20
2008,08,15,07,22,16.20
2008,08,15,07,23,16.30
2008,08,15,07,24,16.30
2008,08,15,07,25,16.30
2008,08,15,07,26,16.30
2008,08,15,07,27,16.30
2008,08,15,07,28,16.30
2008,08,15,07,29,16.40
2008,08,15,07,30,16.40
2008,08,15,07,31,16.40
2008,08,15,07,32,16.40
2008,08,15,07,33,16.40
2008,08,15,07,34,16.40
2008,08,15,07,35,16.50
2008,08,15,07,36,16.60
2008,08,15,07,37,16.60
2008,08,15,07,38,16.70
2008,08,15,07,39,16.70
2008,08,15,07,40,16.70
2008,08,15,07,41,16.70
2008,08,15,07,42,16.70
2008,08,15,07,43,16.80
2008,08,15,07,44,16.80
2008,08,15,07,45,16.80
2008,08,15,07,46,16.90
2008,08,15,07,47,16.90
2008,08,15,07,48,17.00
2008,08,15,07,49,17.00
2008,08,15,07,50,17.00
2008,08,15,07,51,17.10
2008,08,15,07,52,17.10
2008,08,15,07,53,17.20
2008,08,15,07,54,17.20
2008,08,15,07,55,17.30
2008,08,15,07,56,17.30
2008,08,15,07,57,17.30
2008,08,15,07,58,17.30
2008,08,15,07,59,17.40
2008,08,15,08,00,17.40
2008,08,15,08,01,17.50
2008,08,15,08,02,17.50
2008,08,15,08,03,17.60
2008,08,15,08,04,17.70
2008,08,15,08,05,17.70
2008,08,15,08,06,17.80
2008,08,15,08,07,17.90
2008,08,15,08,08,17.90
2008,08,15,08,09,17.90
2008,08,15,08,10,17.90
2008,08,15,08,11,18.00
2008,08,15,08,12,18.10
2008,08,15,08,13,18.10
2008,08,15,08,14,18.10
2008,08,15,08,15,18.20
2008,08,15,08,16,18.20
2008,08,15,08,17,18.20
2008,08,15,08,18,18.20
2008,08,15,08,19,18.20
2008,08,15,08,20,18.30
2008,08,15,08,21,18.40
2008,08,15,08,22,18.50
2008,08,15,08,23,18.60
2008,08,15,08,24,18.60
2008,08,15,08,25,18.60
2008,08,15,08,26,18.80
2008,08,15,08,27,18.90
2008,08,15,08,28,18.90
2008,08,15,08,29,19.00
2008,08,15,08,30,19.20
2008,08,15,08,31,19.40
2008,08,15,08,32,19.40
2008,08,15,08,33,19.60
2008,08,15,08,34,19.70
2008,08,15,08,35,19.90
2008,08,15,08,36,20.00
2008,08,15,08,37,20.10
2008,08,15,08,38,20.20
2008,08,15,08,39,20.30
2008,08,15,08,40,20.40
2008,08,15,08,41,20.50
2008,08,15,08,42,20.70
2008,08,15,08,43,20.80
2008,08,15,08,44,20.90
2008,08,15,08,45,21.00
2008,08,15,08,46,21.10
2008,08,15,08,47,21.20
2008,08,15,08,48,21.30
2008,08,15,08,49,21.30
2008,08,15,08,50,21.30
2008,08,15,08,51,21.30
2008,08,15,08,52,21.40
2008,08,15,08,53,21.40
2008,08,15,08,54,21.60
2008,08,15,08,55,21.60
2008,08,15,08,56,21.60
2008,08,15,08,57,21.70
2008,08,15,08,58,21.80
2008,08,15,08,59,21.90
2008,08,15,09,00,22.00
2008,08,15,09,01,22.00
2008,08,15,09,02,22.10
2008,08,15,09,03,22.20
2008,08,15,09,04,22.30
2008,08,15,09,05,22.30
2008,08,15,09,06,22.40
2008,08,15,09,07,22.50
2008,08,15,09,08,22.60
2008,08,15,09,09,22.70
2008,08,15,09,10,22.80
2008,08,15,09,11,22.80
2008,08,15,09,12,22.80
2008,08,15,09,13,22.80
2008,08,15,09,14,22.80
2008,08,15,09,15,22.80
2008,08,15,09,16,22.80
2008,08,15,09,17,22.80
2008,08,15,09,18,22.90
2008,08,15,09,19,22.90
2008,08,15,09,20,22.90
2008,08,15,09,21,22.90
2008,08,15,09,22,22.90
2008,08,15,09,23,22.80
2008,08,15,09,24,22.80
2008,08,15,09,25,22.70
2008,08,15,09,26,22.70
2008,08,15,09,27,22.60
2008,08,15,09,28,22.60
2008,08,15,09,29,22.60
2008,08,15,09,30,22.60
2008,08,15,09,31,22.60
2008,08,15,09,32,22.60
2008,08,15,09,33,22.60
2008,08,15,09,34,22.60
2008,08,15,09,35,22.70
2008,08,15,09,36,22.70
2008,08,15,09,37,22.80
2008,08,15,09,38,22.80
2008,08,15,09,39,22.90
2008,08,15,09,40,22.90
2008,08,15,09,41,22.90
2008,08,15,09,42,23.00
2008,08,15,09,43,23.10
2008,08,15,09,44,23.10
2008,08,15,09,45,23.10
2008,08,15,09,46,23.10
2008,08,15,09,47,23.10
2008,08,15,09,48,23.10
2008,08,15,09,49,23.20
2008,08,15,09,50,23.20
2008,08,15,09,51,23.20
2008,08,15,09,52,23.10
2008,08,15,09,53,23.10
2008,08,15,09,54,23.00
2008,08,15,09,55,22.90
2008,08,15,09,56,22.90
2008,08,15,09,57,22.90
2008,08,15,09,58,22.90
2008,08,15,09,59,22.90
2008,08,15,10,00,22.90
2008,08,15,10,01,22.90
2008,08,15,10,02,22.80
2008,08,15,10,03,22.80
2008,08,15,10,04,22.70
2008,08,15,10,05,22.60
2008,08,15,10,06,22.60
2008,08,15,10,07,22.60
2008,08,15,10,08,22.50
2008,08,15,10,09,22.50
2008,08,15,10,10,22.60
2008,08,15,10,11,22.60
2008,08,15,10,12,22.60
2008,08,15,10,13,22.70
2008,08,15,10,14,22.80
2008,08,15,10,15,22.80
2008,08,15,10,16,22.80
2008,08,15,10,17,22.80
2008,08,15,10,18,22.80
2008,08,15,10,19,22.70
2008,08,15,10,20,22.70
2008,08,15,10,21,22.70
2008,08,15,10,22,22.80
2008,08,15,10,23,22.80
2008,08,15,10,24,22.80
2008,08,15,10,25,22.80
2008,08,15,10,26,22.80
2008,08,15,10,27,22.80
2008,08,15,10,28,22.80
2008,08,15,10,29,22.90
2008,08,15,10,30,22.90
2008,08,15,10,31,23.00
2008,08,15,10,32,23.20
2008,08,15,10,33,23.30
2008,08,15,10,34,23.30
2008,08,15,10,35,23.30
2008,08,15,10,36,23.40
2008,08,15,10,37,23.50
2008,08,15,10,38,23.60
2008,08,15,10,39,23.70
2008,08,15,10,40,23.70
2008,08,15,10,41,23.80
2008,08,15,10,42,23.90
2008,08,15,10,43,24.10
2008,08,15,10,44,24.10
2008,08,15,10,45,24.10
2008,08,15,10,46,24.10
2008,08,15,10,47,24.00
2008,08,15,10,48,23.90
2008,08,15,10,49,24.00
2008,08,15,10,50,24.10
2008,08,15,10,51,24.30
2008,08,15,10,52,24.40
2008,08,15,10,53,24.40
2008,08,15,10,54,24.50
2008,08,15,10,55,24.60
2008,08,15,10,56,24.60
2008,08,15,10,57,24.70
2008,08,15,10,58,24.80
2008,08,15,10,59,25.00
2008,08,15,11,00,25.10
2008,08,15,11,01,25.10
2008,08,15,11,02,24.90
2008,08,15,11,03,24.70
2008,08,15,11,04,24.60
2008,08,15,11,05,24.50
2008,08,15,11,06,24.20
2008,08,15,11,07,24.10
2008,08,15,11,08,23.90
2008,08,15,11,09,23.90
2008,08,15,11,10,23.90
2008,08,15,11,11,23.90
2008,08,15,11,12,24.00
2008,08,15,11,13,24.10
2008,08,15,11,14,24.10
2008,08,15,11,15,24.10
2008,08,15,11,16,24.10
2008,08,15,11,17,24.20
2008,08,15,11,18,24.30
2008,08,15,11,19,24.50
2008,08,15,11,20,24.60
2008,08,15,11,21,24.60
2008,08,15,11,22,24.50
2008,08,15,11,23,24.30
2008,08,15,11,24,24.00
2008,08,15,11,25,23.80
2008,08,15,11,26,23.80
2008,08,15,11,27,23.70
2008,08,15,11,28,23.70
2008,08,15,11,29,23.70
2008,08,15,11,30,23.70
2008,08,15,11,31,23.70
2008,08,15,11,32,23.70
2008,08,15,11,33,23.70
2008,08,15,11,34,23.90
2008,08,15,11,35,24.00
2008,08,15,11,36,24.10
2008,08,15,11,37,24.10
2008,08,15,11,38,24.00
2008,08,15,11,39,23.70
2008,08,15,11,40,23.60
2008,08,15,11,41,23.50
2008,08,15,11,42,23.50
2008,08,15,11,43,23.60
2008,08,15,11,44,23.70
2008,08,15,11,45,23.80
2008,08,15,11,46,23.80
2008,08,15,11,47,23.90
2008,08,15,11,48,23.90
2008,08,15,11,49,24.10
2008,08,15,11,50,24.30
2008,08,15,11,51,24.50
2008,08,15,11,52,24.70
2008,08,15,11,53,24.80
2008,08,15,11,54,24.90
2008,08,15,11,55,24.90
2008,08,15,11,56,24.80
2008,08,15,11,57,24.60
2008,08,15,11,58,24.40
2008,08,15,11,59,24.20
2008,08,15,12,00,24.10
2008,08,15,12,01,24.10
2008,08,15,12,02,24.10
2008,08,15,12,03,24.00
2008,08,15,12,04,24.10
2008,08,15,12,05,24.10
2008,08,15,12,06,24.10
2008,08,15,12,07,24.10
2008,08,15,12,08,24.10
2008,08,15,12,09,24.20
2008,08,15,12,10,24.40
2008,08,15,12,11,24.50
2008,08,15,12,12,24.70
2008,08,15,12,13,24.80
2008,08,15,12,14,24.90
2008,08,15,12,15,24.90
2008,08,15,12,16,24.80
2008,08,15,12,17,24.60
2008,08,15,12,18,24.30
2008,08,15,12,19,24.00
2008,08,15,12,20,23.80
2008,08,15,12,21,23.70
2008,08,15,12,22,23.60
2008,08,15,12,23,23.60
2008,08,15,12,24,23.40
2008,08,15,12,25,23.50
2008,08,15,12,26,23.50
2008,08,15,12,27,23.60
2008,08,15,12,28,23.60
2008,08,15,12,29,23.70
2008,08,15,12,30,23.70
2008,08,15,12,31,23.80
2008,08,15,12,32,23.80
2008,08,15,12,33,23.90
2008,08,15,12,34,24.10
2008,08,15,12,35,24.10
2008,08,15,12,36,24.10
2008,08,15,12,37,24.20
2008,08,15,12,38,24.20
2008,08,15,12,39,24.10
2008,08,15,12,40,23.80
2008,08,15,12,41,23.70
2008,08,15,12,42,23.60
2008,08,15,12,43,23.40
2008,08,15,12,44,23.30
2008,08,15,12,45,23.30
2008,08,15,12,46,23.30
2008,08,15,12,47,23.20
2008,08,15,12,48,23.20
2008,08,15,12,49,23.20
2008,08,15,12,50,23.30
2008,08,15,12,51,23.30
2008,08,15,12,52,23.30
2008,08,15,12,53,23.30
2008,08,15,12,54,23.30
2008,08,15,12,55,23.40
2008,08,15,12,56,23.40
2008,08,15,12,57,23.40
2008,08,15,12,58,23.30
2008,08,15,12,59,23.30
2008,08,15,13,00,23.30
2008,08,15,13,01,23.20
2008,08,15,13,02,23.20
2008,08,15,13,03,23.20
2008,08,15,13,04,23.20
2008,08,15,13,05,23.10
2008,08,15,13,06,22.90
2008,08,15,13,07,22.90
2008,08,15,13,08,22.90
2008,08,15,13,09,22.90
2008,08,15,13,10,22.90
2008,08,15,13,11,22.90
2008,08,15,13,12,22.90
2008,08,15,13,13,22.90
2008,08,15,13,14,22.90
2008,08,15,13,15,22.90
2008,08,15,13,16,22.90
2008,08,15,13,17,22.90
2008,08,15,13,18,23.00
2008,08,15,13,19,23.10
2008,08,15,13,20,23.10
2008,08,15,13,21,23.20
2008,08,15,13,22,23.30
2008,08,15,13,23,23.40
2008,08,15,13,24,23.40
2008,08,15,13,25,23.50
2008,08,15,13,26,23.60
2008,08,15,13,27,23.70
2008,08,15,13,28,23.70
2008,08,15,13,29,23.70
2008,08,15,13,30,23.70
2008,08,15,13,31,23.80
2008,08,15,13,32,23.80
2008,08,15,13,33,23.90
2008,08,15,13,34,24.00
2008,08,15,13,35,24.10
2008,08,15,13,36,24.10
2008,08,15,13,37,24.20
2008,08,15,13,38,24.20
2008,08,15,13,39,24.20
2008,08,15,13,40,24.20
2008,08,15,13,41,24.30
2008,08,15,13,42,24.30
2008,08,15,13,43,24.30
2008,08,15,13,44,24.40
2008,08,15,13,45,24.40
2008,08,15,13,46,24.40
2008,08,15,13,47,24.40
2008,08,15,13,48,24.30
2008,08,15,13,49,24.30
2008,08,15,13,50,24.30
2008,08,15,13,51,24.30
2008,08,15,13,52,24.40
2008,08,15,13,53,24.50
2008,08,15,13,54,24.50
2008,08,15,13,55,24.50
2008,08,15,13,56,24.50
2008,08,15,13,57,24.50
2008,08,15,13,58,24.60
2008,08,15,13,59,24.60
2008,08,15,14,00,24.60
2008,08,15,14,01,24.50
2008,08,15,14,02,24.40
2008,08,15,14,03,24.30
2008,08,15,14,04,24.30
2008,08,15,14,05,24.30
2008,08,15,14,06,24.30
2008,08,15,14,07,24.40
2008,08,15,14,08,24.50
2008,08,15,14,09,24.60
2008,08,15,14,10,24.60
2008,08,15,14,11,24.50
2008,08,15,14,12,24.50
2008,08,15,14,13,24.30
2008,08,15,14,14,24.10
2008,08,15,14,15,24.00
2008,08,15,14,16,23.80
2008,08,15,14,17,23.70
2008,08,15,14,18,23.70
2008,08,15,14,19,23.70
2008,08,15,14,20,23.70
2008,08,15,14,21,23.70
2008,08,15,14,22,23.70
2008,08,15,14,23,23.70
2008,08,15,14,24,23.70
2008,08,15,14,25,23.70
2008,08,15,14,26,23.70
2008,08,15,14,27,23.70
2008,08,15,14,28,23.70
2008,08,15,14,29,23.70
2008,08,15,14,30,23.70
2008,08,15,14,31,23.70
2008,08,15,14,32,23.70
2008,08,15,14,33,23.70
2008,08,15,14,34,23.70
2008,08,15,14,35,23.70
2008,08,15,14,36,23.70
2008,08,15,14,37,23.70
2008,08,15,14,38,23.70
2008,08,15,14,39,23.70
2008,08,15,14,40,23.80
2008,08,15,14,41,23.80
2008,08,15,14,42,23.90
2008,08,15,14,43,23.90
2008,08,15,14,44,23.90
2008,08,15,14,45,23.80
2008,08,15,14,46,23.70
2008,08,15,14,47,23.70
2008,08,15,14,48,23.70
2008,08,15,14,49,23.70
2008,08,15,14,50,23.70
2008,08,15,14,51,23.70
2008,08,15,14,52,23.70
2008,08,15,14,53,23.70
2008,08,15,14,54,23.70
2008,08,15,14,55,23.70
2008,08,15,14,56,23.70
2008,08,15,14,57,23.70
2008,08,15,14,58,23.70
2008,08,15,14,59,23.70
2008,08,15,15,00,23.70
2008,08,15,15,01,23.70
2008,08,15,15,02,23.70
2008,08,15,15,03,23.70
2008,08,15,15,04,23.70
2008,08,15,15,05,23.70
2008,08,15,15,06,23.70
2008,08,15,15,07,23.70
2008,08,15,15,08,23.70
2008,08,15,15,09,23.70
2008,08,15,15,10,23.70
2008,08,15,15,11,23.80
2008,08,15,15,12,23.80
2008,08,15,15,13,23.90
2008,08,15,15,14,24.00
2008,08,15,15,15,24.10
2008,08,15,15,16,24.10
2008,08,15,15,17,24.20
2008,08,15,15,18,24.20
2008,08,15,15,19,24.20
2008,08,15,15,20,24.20
2008,08,15,15,21,24.20
2008,08,15,15,22,24.20
2008,08,15,15,23,24.30
2008,08,15,15,24,24.30
2008,08,15,15,25,24.30
2008,08,15,15,26,24.40
2008,08,15,15,27,24.40
2008,08,15,15,28,24.40
2008,08,15,15,29,24.40
2008,08,15,15,30,24.30
2008,08,15,15,31,24.30
2008,08,15,15,32,24.20
2008,08,15,15,33,24.10
2008,08,15,15,34,24.10
2008,08,15,15,35,24.10
2008,08,15,15,36,23.90
2008,08,15,15,37,23.80
2008,08,15,15,38,23.70
2008,08,15,15,39,23.70
2008,08,15,15,40,23.70
2008,08,15,15,41,23.70
2008,08,15,15,42,23.70
2008,08,15,15,43,23.70
2008,08,15,15,44,23.80
2008,08,15,15,45,23.90
2008,08,15,15,46,24.10
2008,08,15,15,47,24.20
2008,08,15,15,48,24.20
2008,08,15,15,49,24.30
2008,08,15,15,50,24.40
2008,08,15,15,51,24.60
2008,08,15,15,52,24.70
2008,08,15,15,53,24.80
2008,08,15,15,54,24.90
2008,08,15,15,55,25.00
2008,08,15,15,56,25.20
2008,08,15,15,57,25.30
2008,08,15,15,58,25.50
2008,08,15,15,59,25.70
2008,08,15,16,00,25.90
2008,08,15,16,01,26.00
2008,08,15,16,02,26.10
2008,08,15,16,03,26.20
2008,08,15,16,04,26.30
2008,08,15,16,05,26.30
2008,08,15,16,06,26.40
2008,08,15,16,07,26.60
2008,08,15,16,08,26.60
2008,08,15,16,09,26.70
2008,08,15,16,10,26.80
2008,08,15,16,11,26.90
2008,08,15,16,12,27.10
2008,08,15,16,13,27.20
2008,08,15,16,14,27.30
2008,08,15,16,15,27.30
2008,08,15,16,16,27.30
2008,08,15,16,17,27.30
2008,08,15,16,18,27.30
2008,08,15,16,19,27.30
2008,08,15,16,20,27.30
2008,08,15,16,21,27.30
2008,08,15,16,22,27.40
2008,08,15,16,23,27.30
2008,08,15,16,24,27.30
2008,08,15,16,25,27.10
2008,08,15,16,26,27.00
2008,08,15,16,27,26.90
2008,08,15,16,28,26.90
2008,08,15,16,29,26.90
2008,08,15,16,30,26.90
2008,08,15,16,31,26.90
2008,08,15,16,32,27.00
2008,08,15,16,33,27.10
2008,08,15,16,34,27.20
2008,08,15,16,35,27.20
2008,08,15,16,36,27.20
2008,08,15,16,37,27.30
2008,08,15,16,38,27.30
2008,08,15,16,39,27.30
2008,08,15,16,40,27.20
2008,08,15,16,41,27.20
2008,08,15,16,42,27.20
2008,08,15,16,43,27.10
2008,08,15,16,44,27.00
2008,08,15,16,45,26.70
2008,08,15,16,46,26.50
2008,08,15,16,47,26.40
2008,08,15,16,48,26.10
2008,08,15,16,49,25.80
2008,08,15,16,50,25.40
2008,08,15,16,51,25.10
2008,08,15,16,52,24.80
2008,08,15,16,53,24.50
2008,08,15,16,54,24.20
2008,08,15,16,55,23.90
2008,08,15,16,56,23.80
2008,08,15,16,57,23.70
2008,08,15,16,58,23.70
2008,08,15,16,59,23.70
2008,08,15,17,00,23.70
2008,08,15,17,01,23.80
2008,08,15,17,02,23.90
2008,08,15,17,03,24.00
2008,08,15,17,04,24.10
2008,08,15,17,05,24.10
2008,08,15,17,06,24.30
2008,08,15,17,07,24.40
2008,08,15,17,08,24.50
2008,08,15,17,09,24.60
2008,08,15,17,10,24.70
2008,08,15,17,11,24.90
2008,08,15,17,12,24.90
2008,08,15,17,13,25.00
2008,08,15,17,14,25.20
2008,08,15,17,15,25.30
2008,08,15,17,16,25.40
2008,08,15,17,17,25.50
2008,08,15,17,18,25.70
2008,08,15,17,19,25.80